EHI
7 9 8 7 9 13 15 16 13 9 6 5 4 4 4 3 1 0 0 0 1 1 1 1 0 0 0 0 1 2 1 0 0 0 0 0 1 1 1 0 0 0 0
11 12 12 10 13 16 16 16 16 12 8 6 4 5 6 5 1 0 0 1 2 2 2 1 1 1 0 0 1 1 1 0 0 0 0 0 1 2 1 1 1 1 0
13 14 13 12 14 17 17 17 18 17 13 9 6 6 8 6 2 1 2 2 3 3 3 2 2 2 1 1 1 1 0 0 0 0 1 0 1 2 2 1 2 2 1
14 13 12 11 13 15 16 17 20 20 18 14 9 7 6 4 3 4 5 5 4 4 3 2 2 2 2 2 1 1 0 0 0 0 0 0 0 1 1 1 1 1 1
17 14 12 12 13 15 16 19 24 25 23 18 13 7 4 4 5 7 8 8 6 4 2 1 0 1 1 1 1 1 1 0 0 0 0 0 0 0 0 0 0 0 1
16 14 13 14 16 17 18 22 28 30 26 22 17 11 8 8 9 10 9 7 6 4 1 0 0 1 1 1 1 2 1 1 1 0 0 0 0 0 0 0 0 0 1
12 12 14 17 19 20 21 24 29 31 28 23 19 15 14 12 11 10 9 6 4 3 3 2 2 2 2 3 3 3 3 3 2 1 0 0 0 0 0 0 0 0 0
10 10 13 17 18 19 20 24 29 30 27 22 19 18 15 12 11 10 8 6 4 4 5 5 5 4 3 3 3 4 4 5 4 1 0 1 1 2 2 1 1 1 1
13 12 14 15 15 16 18 22 28 29 25 21 20 19 15 12 11 10 8 5 5 5 5 5 5 5 4 4 4 5 6 6 5 3 2 2 3 5 5 4 3 2 2
17 15 15 13 12 14 17 21 27 29 24 20 19 19 15 11 11 11 10 7 6 7 5 4 5 6 6 6 5 5 5 6 6 5 5 4 4 5 6 6 5 4 3
19 17 16 15 13 14 17 22 28 29 25 21 19 17 13 10 9 10 11 10 9 8 6 5 6 8 8 8 7 4 3 5 5 6 6 6 5 5 6 7 7 6 6
19 19 19 17 16 16 18 23 27 28 27 24 20 16 13 10 9 9 11 12 11 9 7 7 8 10 10 9 7 4 2 2 3 4 4 5 5 5 6 7 6 6 6
19 22 23 21 18 19 22 24 26 26 25 24 21 20 17 12 10 10 13 14 13 9 6 7 9 11 10 8 6 4 2 1 2 3 3 4 5 5 5 5 5 6 5
19 22 25 25 23 24 26 26 27 27 25 24 24 24 21 15 12 13 15 15 14 11 8 7 9 10 10 9 7 5 3 3 4 4 4 4 4 4 4 4 4 6 7
21 22 25 27 27 27 28 26 26 27 27 26 27 26 24 20 17 17 17 15 14 14 12 11 11 12 11 9 9 7 7 8 8 7 6 6 5 4 4 3 3 6 8
24 24 24 25 26 27 27 26 26 26 28 28 28 28 27 26 24 21 18 15 15 15 15 15 15 14 11 7 6 7 9 11 12 11 9 8 6 5 4 2 2 4 6
26 26 25 24 24 24 25 26 25 26 28 29 28 28 30 31 30 26 22 19 17 15 16 17 17 15 10 5 2 4 8 11 13 12 11 10 8 7 5 4 3 3 4
23 23 23 24 23 21 21 23 25 26 28 28 26 27 31 34 34 33 30 25 20 18 16 16 16 15 10 5 2 2 5 10 12 13 12 10 7 5 4 4 5 6 6
18 18 19 23 24 23 22 22 24 27 27 25 23 24 28 33 35 36 34 30 26 23 19 16 16 15 11 6 2 3 7 11 12 13 12 8 6 3 2 3 6 8 8
16 17 18 22 25 26 25 23 25 27 25 24 24 24 27 31 33 34 33 31 30 28 23 19 17 15 12 7 2 3 9 12 13 13 11 7 4 2 1 3 6 7 7
17 18 19 23 27 27 27 29 30 29 26 26 26 27 28 30 31 32 32 31 29 27 24 20 17 14 10 6 2 2 7 11 12 11 8 5 3 1 1 2 3 4 4
16 17 20 24 28 29 31 36 38 35 32 29 27 28 29 30 30 32 32 29 27 25 22 19 16 13 10 5 2 2 3 7 9 8 5 3 2 1 0 0 1 1 1
12 15 19 23 27 29 31 35 40 40 37 32 31 31 31 30 30 31 30 27 25 23 21 18 16 14 10 7 5 3 2 3 5 6 4 2 1 0 0 0 0 1 2
12 13 17 20 23 25 27 31 35 38 37 34 34 33 32 30 30 30 29 27 25 22 21 19 16 15 12 10 9 7 5 4 4 4 3 2 3 3 3 3 2 3 4
11 11 13 16 17 19 22 26 29 32 33 32 31 31 30 29 29 30 28 26 22 19 17 17 16 15 13 10 9 8 7 5 5 4 4 5 6 7 7 7 6 5 5
10 9 9 12 15 17 19 21 24 28 30 28 26 26 26 28 29 30 27 23 19 14 12 13 14 14 12 9 7 6 5 4 3 4 5 6 8 9 10 10 9 6 5
Wind_Speed
12 11 11 10 10 9 9 9 8 8 6 5 4 4 4 3 3 2 3 3 2 2 1 1 2 0 1 1 1 1 2 1 1 2 2 2 3 2 2 2 1 2 2
12 12 12 11 11 11 10 10 9 9 8 5 4 3 3 3 3 2 3 2 3 2 2 1 2 1 2 2 2 1 1 1 1 2 2 2 3 3 2 2 2 1 2
13 13 13 13 12 12 12 10 10 9 8 7 5 4 4 3 4 4 3 3 3 3 1 2 1 1 1 2 2 2 2 1 1 1 2 2 1 2 3 2 2 1 1
13 13 14 14 13 13 12 11 10 10 9 8 7 7 5 5 4 4 3 4 4 3 3 3 2 1 1 2 2 2 1 2 2 1 1 3 3 2 2 3 2 2 2
12 13 14 14 13 12 11 11 10 10 9 9 8 7 6 5 4 4 5 4 4 4 4 3 3 2 1 1 1 1 2 2 2 1 1 1 1 3 3 1 1 1 1
10 11 12 12 12 12 11 11 11 10 10 9 9 8 6 5 5 5 5 5 4 4 5 4 3 3 2 2 2 2 3 2 1 2 2 2 2 2 2 2 2 1 1
9 11 11 12 12 12 12 11 12 11 11 10 9 9 8 7 7 6 5 4 4 4 5 4 4 3 3 3 3 3 2 2 2 2 2 2 2 2 2 3 2 2 2
9 10 11 11 11 12 13 12 12 12 11 11 9 9 9 7 6 6 5 5 3 3 4 5 4 4 4 4 3 3 3 2 3 2 2 3 2 2 2 3 3 3 2
8 9 9 10 11 11 12 12 12 12 11 11 10 9 9 7 6 6 6 5 4 4 5 5 5 5 4 4 4 2 3 2 3 3 3 3 2 3 3 3 3 4 4
7 8 8 8 9 10 10 11 11 11 11 11 10 8 9 8 7 6 6 5 4 4 5 5 5 5 5 4 4 4 3 3 3 2 2 3 3 2 3 3 3 4 5
6 7 7 7 8 9 10 10 10 11 11 10 10 9 9 9 8 7 6 6 5 5 6 6 5 5 5 5 4 4 4 4 3 3 3 3 3 3 3 3 3 3 4
4 6 7 7 7 9 9 9 10 10 10 10 10 10 9 8 8 8 7 6 6 6 6 6 6 6 5 5 5 5 4 5 5 4 4 4 3 3 4 3 4 3 4
4 5 6 7 7 7 7 8 9 10 10 10 10 10 9 9 8 7 7 6 6 6 6 7 6 6 6 5 5 5 5 5 5 5 5 4 4 4 3 4 4 4 4
4 5 6 6 6 6 7 7 8 8 8 9 9 9 9 9 8 7 7 7 7 7 7 7 7 6 6 6 5 5 5 5 5 5 5 5 5 5 5 4 5 5 5
5 5 6 5 6 6 7 7 6 6 7 8 8 8 8 8 7 7 7 7 7 8 7 7 6 6 6 5 6 6 6 5 5 5 5 5 3 3 4 5 4 4 5
4 5 6 6 6 6 7 7 7 7 7 7 7 7 7 8 8 8 7 7 7 7 7 7 7 7 5 4 5 6 6 6 6 5 5 5 6 5 6 5 6 6 6
2 4 5 5 5 6 7 7 7 7 7 7 6 7 7 7 8 8 8 8 8 8 7 7 6 6 5 5 6 6 6 6 5 5 5 5 3 5 5 6 8 8 8
2 2 3 5 5 6 7 7 7 7 7 7 6 7 7 7 7 7 7 7 7 6 6 6 7 6 6 7 7 7 8 6 6 5 5 5 4 4 4 6 6 6 6
3 2 2 3 4 5 6 8 8 7 7 7 7 7 7 7 7 7 7 7 6 6 6 6 7 7 6 7 8 8 7 6 6 6 5 5 5 2 4 6 7 6 5
2 1 1 2 4 4 6 8 8 7 7 7 6 6 6 7 7 7 6 6 6 6 6 6 7 7 6 7 8 9 6 6 5 5 5 5 4 4 5 6 6 6 5
3 1 0 2 2 3 5 6 7 7 6 6 6 6 6 6 6 5 6 6 6 6 6 6 6 6 6 7 8 9 6 5 5 4 5 3 5 5 6 7 6 5 6
3 2 0 1 1 2 4 5 5 5 5 5 5 6 6 6 5 6 6 6 6 7 7 6 6 6 6 6 7 9 9 6 6 5 4 2 5 6 7 7 4 5 6
2 2 1 1 1 1 2 3 3 3 5 6 6 5 5 5 5 6 6 6 6 6 6 6 6 5 5 6 8 9 9 8 6 4 1 2 5 6 7 8 7 6 6
3 2 1 1 1 1 1 2 2 3 4 5 5 5 5 5 5 5 5 6 6 6 6 6 5 5 5 4 5 5 6 7 6 4 3 6 6 6 4 5 6 6 4
3 3 2 2 2 1 2 2 2 3 3 3 3 4 5 5 5 5 4 5 5 4 5 5 5 5 5 4 4 4 4 4 4 4 4 4 4 5 4 4 4 4 4
4 3 3 3 3 2 2 2 2 3 3 4 4 4 4 4 5 5 5 3 3 3 4 3 4 3 1 4 5 5 4 3 3 4 4 4 4 5 4 4 4 4 4
Wind_Direction
190 188 191 188 184 183 183 186 188 177 182 183 186 179 176 177 167 164 144 167 159 148 177 128 134 188 110 101 132 166 163 199 184 191 165 163 174 165 167 199 205 175 189
192 191 194 194 190 186 187 187 190 186 190 185 187 185 173 175 165 164 151 183 177 182 171 152 171 128 125 136 142 189 234 197 217 250 216 184 165 184 162 180 196 206 205
200 195 199 199 194 190 190 190 190 187 192 184 182 174 166 177 171 176 174 185 192 194 174 154 147 149 190 142 170 191 210 223 221 286 292 282 164 147 158 176 169 199 234
205 201 199 200 198 193 190 189 188 188 186 185 190 186 187 186 181 188 179 181 190 189 172 162 151 190 176 146 202 157 230 233 230 206 294 325 349 290 167 175 164 186 221
204 203 201 199 198 190 186 185 184 185 184 189 190 196 199 192 183 183 176 190 179 189 182 168 172 188 205 163 211 168 238 233 254 256 230 231 233 270 281 236 201 196 206
200 200 197 193 192 188 185 183 179 182 182 186 189 196 197 197 190 188 180 190 181 187 183 183 183 190 182 176 195 198 200 242 262 277 273 260 266 269 277 271 250 248 221
194 191 191 190 190 190 187 182 179 183 184 186 189 192 194 195 198 199 192 202 190 187 177 186 186 187 182 189 195 200 219 216 221 243 262 274 279 290 287 287 286 271 242
191 189 190 190 191 192 192 187 183 186 186 187 190 194 194 198 198 199 203 198 204 188 170 186 186 183 188 195 195 212 205 206 217 227 261 271 273 277 277 287 287 278 252
189 188 187 189 189 191 193 192 188 188 189 189 188 195 195 200 199 193 203 205 198 186 181 189 189 189 192 202 206 207 216 217 226 222 222 256 263 264 270 272 276 285 285
186 186 185 188 188 188 188 190 192 192 191 190 192 191 194 195 198 202 203 206 201 190 187 189 192 190 194 201 214 209 202 226 233 247 263 269 269 277 271 270 265 269 280
185 181 182 185 187 187 185 186 189 192 194 196 194 196 195 194 195 199 201 202 204 193 194 193 188 191 198 202 211 226 212 227 233 241 237 248 276 275 269 263 265 264 269
188 178 176 180 186 185 183 183 187 192 195 194 196 197 198 197 197 197 199 198 199 200 195 196 194 200 201 206 213 224 221 225 231 239 245 248 242 248 271 273 266 264 267
190 177 173 177 182 183 183 185 194 194 193 191 195 196 196 197 200 198 196 197 199 202 200 199 199 204 207 210 216 221 227 230 235 238 241 246 248 253 259 266 268 264 256
192 187 179 181 182 182 182 187 196 193 192 192 193 194 196 197 197 195 197 198 200 202 201 202 202 206 208 209 214 217 224 230 235 239 242 246 251 258 263 256 259 271 274
196 192 190 183 185 181 180 183 187 186 189 191 194 191 193 195 195 197 200 201 204 204 201 202 203 209 209 210 213 221 222 228 237 240 241 243 250 280 281 284 280 270 265
204 197 195 190 190 185 180 178 183 181 184 192 194 187 189 193 195 199 203 203 203 204 202 203 204 211 214 180 195 226 226 230 236 243 246 238 221 222 229 258 280 284 272
223 207 201 200 198 190 181 180 183 181 182 188 191 189 193 197 200 201 200 202 200 198 201 205 208 211 199 174 197 221 233 230 235 243 250 255 232 232 243 232 230 240 246
280 223 209 197 194 187 179 180 177 179 183 184 189 195 197 198 201 202 201 202 199 199 200 206 212 214 198 182 199 215 229 233 231 234 239 248 250 250 260 256 248 247 237
310 260 222 200 189 185 177 173 173 174 181 186 190 194 197 197 199 202 200 200 198 201 202 204 211 216 202 183 194 208 221 221 226 229 230 236 239 235 255 253 252 251 247
344 315 192 190 184 180 176 175 175 176 182 187 189 193 198 199 200 203 203 199 200 203 206 204 210 214 211 183 189 206 226 221 223 222 222 218 238 223 235 249 255 257 262
355 8 167 189 169 175 178 182 181 184 186 187 185 188 195 201 200 200 200 198 201 203 209 206 211 213 212 187 189 204 231 231 229 228 229 206 189 218 233 248 255 268 277
358 7 36 134 140 166 177 182 185 183 184 186 190 191 195 205 193 196 199 202 202 200 204 206 212 207 203 201 193 202 226 250 239 240 243 202 182 214 225 232 243 252 259
335 341 18 104 120 159 177 186 179 180 185 187 191 195 194 200 198 198 198 200 203 211 207 207 210 209 201 184 185 198 214 230 240 246 241 205 207 219 221 221 222 229 240
318 311 274 204 180 185 193 205 181 187 192 192 194 196 198 199 194 205 208 211 211 216 213 213 216 213 199 196 190 200 205 211 227 233 195 197 216 234 237 209 211 228 243
310 294 266 247 230 227 231 224 191 193 202 203 205 209 208 205 203 207 214 219 219 225 229 225 218 218 216 195 191 214 212 217 219 225 218 219 215 223 224 221 216 221 219
298 282 268 260 249 232 228 225 212 211 212 214 218 222 221 211 212 208 207 197 227 189 202 248 266 234 170 151 172 201 224 219 196 221 228 229 229 232 233 228 218 216 223